Hourly Data Report for May 07, 2012

All times are specified in Local Standard Time (LST). Add 1 hour to adjust for Daylight Saving Time where and when it is observed.

OTTAWA INTL A
ONTARIO

45°19'00.000" N
75°40'00.000" W
114.90 m
6106001
71628
YOW

Download Data

Hourly Data (May 2012)
Hourly Data Report for May 7, 2012
Temp Definition
°C
Dew Point Temp Definition
°C
Rel Hum Definition
%
Wind Dir Definition
10's deg

Wind Spd Definition
km/h
Visibility Definition
km
Stn Press Definition
kPa
Hmdx Definition


Wind Chill Definition


Weather Definition


TIME
00:00 Legend Double Dagger 6.3 -0.2 63 18 4 10.0 100.58     LegendNANA
01:00 Legend Double Dagger 5.6 0.6 70 4 6 10.0 100.57     Mostly Cloudy
02:00 Legend Double Dagger 5.2 0.8 73 7 8 10.0 100.59     LegendNANA
03:00 Legend Double Dagger 3.4 0.8 83 10 5 10.0 100.60     LegendNANA
04:00 Legend Double Dagger 3.9 0.4 78 7 9 10.0 100.59     Mainly Clear
05:00 Legend Double Dagger 3.5 0.2 79 6 10 10.0 100.57     LegendNANA
06:00 Legend Double Dagger 7.0 1.5 68 8 4 10.0 100.60     LegendNANA
07:00 Legend Double Dagger 10.1 2.0 57 7 8 10.0 100.63     Mainly Clear
08:00 Legend Double Dagger 13.9 1.6 43 8 8 10.0 100.68     LegendNANA
09:00 Legend Double Dagger 16.2 -0.9 31 5 6 10.0 100.65     LegendNANA
10:00 Legend Double Dagger 18.3 -0.9 27 11 16 10.0 100.63     Mainly Clear
11:00 Legend Double Dagger 19.5 -1.5 24 9 22 10.0 100.53     LegendNANA
12:00 Legend Double Dagger 20.5 -2.4 21 7 24 10.0 100.45     LegendNANA
13:00 Legend Double Dagger 20.5 -1.2 23 8 10 10.0 100.37     Mostly Cloudy
14:00 Legend Double Dagger 21.4 -1.7 21 8 18 10.0 100.27     LegendNANA
15:00 Legend Double Dagger 21.5 -1.6 21 9 17 10.0 100.17     LegendNANA
16:00 Legend Double Dagger 21.9 -1.2 21 12 14 10.0 100.07     Mostly Cloudy
17:00 Legend Double Dagger 21.3 0.1 24 11 15 10.0 99.98     LegendNANA
18:00 Legend Double Dagger 19.4 -1.0 25 10 23 10.0 99.92     LegendNANA
19:00 Legend Double Dagger 17.4 -0.2 30 10 12 10.0 99.91     Mostly Cloudy
20:00 Legend Double Dagger 17.0 0.3 32 7 12 10.0 99.89     LegendNANA
21:00 Legend Double Dagger 15.7 1.1 37 4 11 10.0 99.88     LegendNANA
22:00 Legend Double Dagger 15.2 1.4 39   0 10.0 99.90     Rain Showers
23:00 Legend Double Dagger 12.9 8.8 76 6 5 10.0 99.82     LegendNANA

Notes on Data Quality.

Legend

  • E = Estimated
  • M = Missing
  • NA = Not Available
  • ‡ = Partner data that is not subject to review by the National Climate Archives
Date modified: